Regional Weather Roundup
Issued by NWS

Home | Current Version | Previous Version | Text Only | Print | Product List | Glossary Off
Versions: 1 2 3 4 5 6 7 8 9 10 11 12 13 14 15 16 17 18 19 20 21 22 23 24 25 26 27 28 29 30 31 32 33 34 35 36 37 38 39 40 41 42 43 44 45 46 47 48 49 50

000
ASUS43 KMPX 190001
RWRMN
WEATHER ROUNDUP FOR MINNESOTA
NATIONAL WEATHER SERVICE TWIN CITIES/CHANHASSEN MN
600 PM CST SUN FEB 18 2018


NOTE: "FAIR" INDICATES FEW OR NO CLOUDS BELOW 12,000 FEET WITH NO
SIGNIFICANT WEATHER AND/OR OBSTRUCTIONS TO VISIBILITY. N/A MEANS
CURRENT SKY AND/OR WEATHER CONDITIONS ARE NOT AVAILABLE.

MNZ060>063-068>070-190100-
   Twin Cities Metro

CITY           SKY/WX    TMP DP  RH WIND       PRES   REMARKS
TWIN CITIES    CLOUDY    41  30  65 S7        29.63R
6HR MIN TEMP:  35; 6HR MAX TEMP:  45;

ST PAUL        FAIR      38  31  76 SE8       29.64R
CRYSTAL        FAIR      40  29  64 S6        29.61R
BLAINE         MOCLDY    43  30  61 S8        29.61S
LAKEVILLE      FAIR      36  30  80 S5        29.62S
EDEN PRAIRIE   FAIR      40  29  64 S6        29.60R
6HR MIN TEMP:  37; 6HR MAX TEMP:  43;

SOUTH ST PAUL  FAIR      39  31  70 S10G17    29.63S
LAKE ELMO      FAIR      37  32  81 S8        29.65R
$$
MNZ001>005-007-008-013>017-022>024-027-028-190100-
   Northwest Minnesota

CITY           SKY/WX    TMP DP  RH WIND       PRES   REMARKS
BEMIDJI        FLURRIES  13   9  83 N14       29.80R WCI  -2
HALLOCK        FAIR      10   3  72 N16       29.98R WCI  -7
WARROAD        FAIR       9   1  72 N10       29.95R WCI  -6
THIEF RVR FALL FAIR       9   4  80 N18       29.92R WCI -10
CROOKSTON      FAIR      12   7  79 N15       29.94R WCI  -4
FOSSTON        FAIR       9   3  78 N16       29.86R WCI  -9
DETROIT LAKES  CLOUDY    21  14  73 N12G18    29.79R WCI   9
MOORHEAD       FAIR      12   9  85 N28G35    29.87R WCI  -9
PARK RAPIDS    CLOUDY    19  13  77 N9G21     29.75R WCI   8
MAHNOMEN       FAIR      13   8  82 N16       29.83R WCI  -4
$$
MNZ006-009>011-018-025>026-190100-
   North Central Minnesota

CITY           SKY/WX    TMP DP  RH WIND       PRES   REMARKS
BAUDETTE       FAIR      10   3  73 N10       29.89R WCI  -4
FLAG ISLAND    MOCLDY     9   1  72 NE8       29.95R WCI  -4
INTL FALLS     MOCLDY    10   5  80 NE9       29.88R WCI  -3
6HR MIN TEMP:   9; 6HR MAX TEMP:  11; 6HR PCP:  0.07;

WASKISH        CLOUDY    12   7  79 NE7       29.87R WCI   2
BIG FORK       FLURRIES  12   9  85 N7        29.81R WCI   2
LONGVILLE      CLOUDY    18  14  86 N5        29.74R WCI  11
GRAND RAPIDS   FLURRIES  17  13  84 N8        29.76R WCI   7
CRANE LAKE     LGT SNOW   9   5  85 N5        29.87R WCI   0
ORR            LGT SNOW  10   5  79 N5        29.79R WCI   2
COOK           FLURRIES  12   9  85 N7        29.80R WCI   2
WALKER         CLOUDY    17  12  79 N12       29.76R WCI   4
$$
MNZ012-019>021-037-190100-
   Northeast Minnesota

CITY           SKY/WX    TMP DP  RH WIND       PRES   REMARKS
DULUTH         LGT SNOW  23  20  88 NE10      29.70R VSB 3/4 WCI  12
6HR MIN TEMP:  19; 6HR MAX TEMP:  23; 6HR PCP:  0.13;

ELY            FLURRIES  10   9  92 NE8       29.78R WCI  -1
HIBBING        LGT SNOW  16  12  84 N9        29.74R FOG     WCI   4
EVELETH        FLURRIES N/A N/A N/A NE9       29.75R
DULUTH HARBOR  LGT SNOW  27  25  93 NE21      29.74R WCI  13
TWO HARBORS    LGT SNOW  27  21  80 NE7       29.71R WCI  19
G MARAIS ARPRT LGT SNOW   9   1  72 N14G20    29.73S WCI  -8
$$
MNZ029>031-032-039>041-046>048-054>057-064-190100-
   West Central Minnesota

CITY           SKY/WX    TMP DP  RH WIND       PRES   REMARKS
FERGUS FALLS   FAIR      21  12  68 N13       29.77R WCI   9
WHEATON        CLOUDY    21  16  79 NW20G29   29.79R WCI   6
MORRIS         CLOUDY    25  16  68 N18       29.70R WCI  11
ALEXANDRIA     CLOUDY    21  15  78 N15       29.68R WCI   8
ELBOW LAKE     FAIR      21  15  75 N16       29.74R WCI   7
WADENA         CLOUDY    18  12  79 N12       29.73R WCI   5
GLENWOOD       FAIR      21  18  86 N16G23    29.67R WCI   7
APPLETON       CLOUDY    28  18  64 N21G26    29.68R WCI  15
BENSON         CLOUDY    28  18  64 NE17G25   29.68R WCI  16
ORTONVILLE     CLOUDY    25  16  68 N21       29.71R WCI  10
MADISON        CLOUDY    30  19  64 N23G31    29.69R WCI  17
WILLMAR        FAIR      30  21  69 N16       29.65R WCI  19
$$
MNZ033>034-036-042>043-049>051-058-059-190100-
   Central Minnesota

CITY           SKY/WX    TMP DP  RH WIND       PRES   REMARKS
ST CLOUD       CLOUDY    32  24  72 N13       29.61R WCI  22
6HR MIN TEMP:  32; 6HR MAX TEMP:  41;

SAUK CENTRE    CLOUDY    23  17  80 N13G21    29.67R WCI  11
PAYNESVILLE    MOCLDY    30  20  67 N14G21    29.64R WCI  19
AITKIN         LGT SNOW  19  16  86 N13       29.68S WCI   7
PINE RIVER     CLOUDY    18  12  79 N8        29.76R WCI   7
BRAINERD       LGT SNOW  21  15  78 N12       29.70R WCI   9
STAPLES        FAIR      19  12  73 N8        29.71R WCI   9
LONG PRAIRIE   FAIR      21  18  86 NW15      29.68R WCI   8
LITTLE FALLS   CLOUDY    23  14  68 N7        29.68R WCI  15
LITCHFIELD     FAIR      39  28  65 NW15      29.61R
BUFFALO        FAIR      39  31  72 S3        29.61S
MAPLE LAKE     FAIR      39  33  78 S5        29.60S
HUTCHINSON     FAIR      37  32  81 S3        29.60R
$$
MNZ037-044-045-052-053-190100-
   East Central Minnesota

CITY           SKY/WX    TMP DP  RH WIND       PRES   REMARKS
PRINCETON      FAIR      39  30  70 CALM      29.61R
MORA           CLOUDY    27  18  69 NE6       29.67R WCI  20
CAMBRIDGE      FAIR      43  30  61 CALM      29.62S
RUSH CITY      CLOUDY    38  29  71 SE3       29.63S
MOOSE LAKE     LGT SNOW  23  19  86 NE7       29.68R VSB 3/4 WCI  15
HINCKLEY       LGT SNOW  25  21  86 N12G17    29.66R WCI  14
CLOQUET        LGT SNOW  21  19  93 NE6       29.69S WCI  14
MCGREGOR       CLOUDY    23  19  86 N9        29.70S WCI  13
$$
MNZ071>073-080-081-089-090-097-098-190100-
   Southwest Minnesota

CITY           SKY/WX    TMP DP  RH WIND       PRES   REMARKS
MONTEVIDEO     CLOUDY    32  19  59 N17G24    29.65R WCI  21
GRANITE FALLS  CLOUDY    38  25  59 NW21      29.63R
CANBY          CLOUDY    29  20  70 W15G21    29.68R WCI  17
MARSHALL       CLOUDY    33  21  61 N21G26    29.63R WCI  21
REDWOOD FALLS  CLOUDY    41  27  57 NW12G20   29.60R
OLIVIA         CLOUDY    37  27  65 NW14      29.60R
PIPESTONE      CLOUDY    34  25  69 NE13G21   29.60R WCI  25
WINDOM         CLOUDY    37  21  52 CALM      29.60R
WORTHINGTON    CLOUDY    35  31  85 W5        29.59R WCI  31
JACKSON        CLOUDY    37  32  81 S5        29.61R
TRACY          CLOUDY    37  27  68 N14G20    29.61R
SLAYTON        PTCLDY    36  32  86 NW12G17   29.60R
$$
MNZ065>067-074>077-082>085-091>093-190100-
   South Central Minnesota

CITY           SKY/WX    TMP DP  RH WIND       PRES   REMARKS
MANKATO        FAIR      38  30  73 S8        29.61S
NEW ULM        CLOUDY    37  30  75 SW5       29.61R
ST JAMES       CLOUDY    37  30  75 S6        29.62R
FAIRMONT       PTCLDY    36  31  82 S7        29.61S
GLENCOE        FAIR      39  33  80 S6        29.60R
FARIBAULT      FAIR      39  30  70 SE10      29.63S
OWATONNA       FAIR      39  30  70 S17       29.63S
WASECA         FAIR      39  32  75 S14       29.63S
ALBERT LEA     FAIR      39  28  65 S9        29.64R
$$
MNZ078>079-086>088-094>096-190100-
   Southeast Minnesota

CITY           SKY/WX    TMP DP  RH WIND       PRES   REMARKS
ROCHESTER      FAIR      37  29  72 S17       29.67R
6HR MIN TEMP:  33; 6HR MAX TEMP:  38;

RED WING       FAIR      41  25  52 S13G25    29.66S
STANTON        FAIR      39  31  72 S9G16     29.62S
DODGE CENTER   FAIR      36  28  75 S17       29.65S
WINONA         FAIR      39  28  65 S7G18     29.71S
AUSTIN         FAIR      37  28  70 S8        29.66R
PRESTON        FAIR      34  28  79 S14G20    29.71R WCI  25
$$
ABBREVIATIONS USED IN REMARKS
   TC - TEMPERATURES IN CELSIUS
  WCI - WIND CHILL INDEX
   HX - HEAT INDEX
  VSB - VISIBILITY
$$



USA.gov is the U.S. government's official web portal to all federal, state and local government web resources and services.